Total_Precipitation_Accumulation
0.67 0.82 0.94 1.16 1.37 1.51 1.67 1.68 1.78 1.89 1.97 2.03 1.94 1.72 1.55 1.49 1.42 1.31 1.26 1.19 1.13 1.08 1.00 0.93 0.90 0.89 0.84 0.77 0.74 0.67 0.58 0.54 0.56 0.56 0.47 0.37 0.32 0.27 0.25 0.26 0.25 0.22 0.21
0.57 0.66 0.79 0.99 1.16 1.28 1.39 1.50 1.58 1.70 1.79 1.83 1.81 1.80 1.84 1.71 1.56 1.43 1.33 1.28 1.25 1.20 1.10 1.04 1.01 0.98 0.94 0.86 0.84 0.87 0.81 0.71 0.70 0.72 0.72 0.58 0.44 0.33 0.28 0.28 0.27 0.25 0.24
0.53 0.57 0.64 0.85 0.96 1.06 1.17 1.27 1.39 1.49 1.52 1.70 1.86 1.88 1.91 1.84 1.60 1.39 1.25 1.29 1.38 1.39 1.26 1.17 1.17 1.16 1.13 1.05 0.99 0.98 0.96 0.92 0.87 0.87 0.96 0.83 0.60 0.43 0.34 0.31 0.30 0.29 0.29
0.59 0.61 0.64 0.76 0.82 0.86 1.00 1.12 1.24 1.34 1.37 1.52 1.61 1.56 1.45 1.41 1.33 1.28 1.30 1.35 1.40 1.46 1.43 1.39 1.33 1.29 1.28 1.22 1.27 1.31 1.23 1.16 1.03 0.95 0.90 0.88 0.75 0.71 0.55 0.39 0.34 0.31 0.29
0.54 0.61 0.63 0.68 0.73 0.72 0.78 0.92 1.11 1.18 1.22 1.29 1.36 1.45 1.41 1.34 1.35 1.35 1.30 1.26 1.24 1.33 1.41 1.44 1.43 1.31 1.23 1.19 1.22 1.28 1.33 1.26 1.18 1.11 1.05 1.02 0.91 0.82 0.79 0.59 0.42 0.39 0.35
0.54 0.56 0.53 0.57 0.68 0.65 0.62 0.73 0.87 1.07 1.15 1.18 1.24 1.31 1.30 1.23 1.22 1.26 1.27 1.28 1.21 1.16 1.19 1.28 1.29 1.31 1.28 1.22 1.24 1.32 1.39 1.40 1.34 1.26 1.16 1.10 1.03 0.89 0.90 0.85 0.65 0.57 0.50
0.50 0.53 0.53 0.59 0.64 0.63 0.58 0.58 0.67 0.86 1.01 1.04 1.05 1.10 1.21 1.21 1.13 1.15 1.20 1.21 1.17 1.11 1.12 1.19 1.22 1.24 1.26 1.28 1.30 1.31 1.27 1.31 1.31 1.26 1.20 1.13 1.03 0.97 1.03 1.07 0.94 0.79 0.65
0.43 0.47 0.49 0.52 0.50 0.50 0.53 0.55 0.60 0.66 0.73 0.78 0.85 0.93 1.01 1.09 1.05 1.01 1.04 1.04 1.00 1.02 1.05 1.10 1.14 1.17 1.20 1.23 1.25 1.23 1.20 1.18 1.19 1.16 1.13 1.08 0.99 0.96 1.00 1.09 1.18 1.14 0.92
0.33 0.34 0.36 0.37 0.34 0.35 0.42 0.48 0.49 0.52 0.58 0.60 0.64 0.75 0.80 0.89 0.98 1.00 1.00 1.02 0.99 0.94 0.94 0.94 0.95 1.00 1.03 1.06 1.11 1.12 1.08 1.05 1.04 1.01 1.00 0.97 0.92 0.88 0.91 0.99 1.15 1.36 1.30
0.26 0.28 0.31 0.30 0.27 0.27 0.28 0.31 0.37 0.48 0.53 0.50 0.53 0.60 0.68 0.73 0.80 0.87 0.91 0.90 0.87 0.83 0.81 0.81 0.79 0.80 0.84 0.91 0.97 0.98 0.98 0.99 0.95 0.94 0.94 0.92 0.89 0.89 0.92 0.98 1.06 1.18 1.31
0.23 0.24 0.23 0.23 0.23 0.22 0.22 0.25 0.30 0.38 0.42 0.43 0.45 0.48 0.53 0.58 0.63 0.67 0.72 0.71 0.72 0.73 0.72 0.73 0.74 0.73 0.72 0.76 0.84 0.89 0.92 0.94 0.92 0.88 0.87 0.86 0.85 0.87 0.88 0.93 0.98 1.03 1.11
0.24 0.21 0.18 0.17 0.19 0.20 0.21 0.22 0.27 0.32 0.35 0.37 0.40 0.43 0.45 0.46 0.50 0.56 0.57 0.57 0.60 0.60 0.59 0.58 0.60 0.62 0.62 0.63 0.69 0.75 0.78 0.81 0.84 0.86 0.89 0.89 0.91 0.95 0.97 1.00 1.00 0.99 0.99
0.26 0.23 0.19 0.17 0.18 0.19 0.20 0.20 0.24 0.29 0.31 0.33 0.35 0.35 0.37 0.39 0.40 0.45 0.49 0.52 0.57 0.62 0.63 0.58 0.54 0.52 0.52 0.56 0.60 0.64 0.70 0.74 0.76 0.80 0.86 0.90 0.95 1.01 1.02 1.01 1.00 0.96 0.92
0.26 0.26 0.27 0.22 0.19 0.19 0.17 0.16 0.19 0.24 0.28 0.28 0.29 0.29 0.33 0.35 0.35 0.37 0.40 0.44 0.49 0.56 0.57 0.57 0.57 0.54 0.52 0.54 0.59 0.66 0.71 0.78 0.81 0.83 0.85 0.88 0.90 0.90 0.90 0.88 0.86 0.87 0.88
0.24 0.25 0.26 0.26 0.23 0.20 0.19 0.17 0.17 0.20 0.23 0.26 0.26 0.27 0.31 0.33 0.35 0.36 0.38 0.40 0.42 0.50 0.53 0.55 0.57 0.57 0.57 0.60 0.65 0.69 0.75 0.80 0.86 0.89 0.88 0.84 0.82 0.77 0.76 0.76 0.75 0.75 0.81
0.21 0.22 0.21 0.23 0.21 0.22 0.21 0.20 0.20 0.20 0.21 0.24 0.24 0.24 0.28 0.30 0.33 0.35 0.38 0.38 0.41 0.48 0.53 0.60 0.66 0.69 0.74 0.88 0.89 0.82 0.80 0.82 0.81 0.79 0.76 0.74 0.74 0.72 0.75 0.75 0.75 0.79 0.89
0.13 0.16 0.18 0.20 0.20 0.19 0.19 0.17 0.18 0.18 0.20 0.22 0.22 0.24 0.27 0.31 0.32 0.36 0.41 0.46 0.51 0.59 0.66 0.70 0.80 0.84 0.87 0.92 0.85 0.81 0.75 0.77 0.76 0.71 0.66 0.62 0.58 0.59 0.56 0.63 0.70 0.72 0.77
0.08 0.09 0.12 0.13 0.13 0.13 0.14 0.16 0.15 0.16 0.17 0.21 0.26 0.28 0.29 0.37 0.44 0.44 0.48 0.56 0.63 0.70 0.77 0.77 0.80 0.83 0.84 0.83 0.75 0.73 0.63 0.59 0.58 0.56 0.53 0.49 0.48 0.49 0.52 0.58 0.66 0.59 0.55
0.09 0.09 0.09 0.12 0.12 0.12 0.14 0.16 0.18 0.18 0.18 0.22 0.28 0.32 0.33 0.43 0.53 0.53 0.55 0.59 0.65 0.72 0.75 0.74 0.71 0.65 0.64 0.64 0.58 0.55 0.50 0.48 0.45 0.44 0.46 0.48 0.44 0.50 0.64 0.67 0.64 0.53 0.44
0.11 0.11 0.12 0.13 0.15 0.17 0.19 0.21 0.24 0.29 0.31 0.32 0.37 0.43 0.49 0.56 0.61 0.60 0.59 0.57 0.56 0.58 0.57 0.53 0.50 0.47 0.44 0.46 0.45 0.43 0.38 0.39 0.39 0.42 0.45 0.49 0.48 0.56 0.67 0.61 0.58 0.51 0.43
0.16 0.15 0.16 0.18 0.20 0.20 0.22 0.25 0.28 0.38 0.43 0.45 0.48 0.50 0.55 0.57 0.57 0.55 0.52 0.47 0.42 0.41 0.40 0.38 0.37 0.37 0.36 0.38 0.37 0.39 0.36 0.36 0.40 0.42 0.40 0.43 0.59 0.66 0.64 0.56 0.46 0.49 0.54
0.14 0.16 0.19 0.21 0.23 0.26 0.31 0.33 0.35 0.40 0.43 0.44 0.44 0.44 0.43 0.44 0.45 0.44 0.43 0.39 0.36 0.34 0.34 0.34 0.36 0.38 0.39 0.39 0.40 0.44 0.47 0.49 0.45 0.39 0.36 0.42 0.59 0.59 0.52 0.46 0.49 0.58 0.53
0.12 0.15 0.20 0.24 0.27 0.29 0.31 0.34 0.34 0.34 0.34 0.35 0.34 0.32 0.30 0.29 0.30 0.31 0.32 0.32 0.31 0.30 0.32 0.35 0.37 0.39 0.40 0.44 0.48 0.49 0.57 0.59 0.51 0.47 0.54 0.57 0.53 0.46 0.43 0.43 0.47 0.47 0.44
0.10 0.12 0.14 0.16 0.19 0.21 0.22 0.24 0.23 0.23 0.22 0.22 0.23 0.24 0.21 0.21 0.23 0.23 0.26 0.28 0.28 0.28 0.28 0.32 0.38 0.39 0.37 0.40 0.45 0.49 0.54 0.57 0.56 0.58 0.59 0.53 0.45 0.40 0.39 0.42 0.42 0.40 0.42
0.09 0.09 0.09 0.10 0.11 0.12 0.13 0.14 0.14 0.15 0.17 0.17 0.17 0.18 0.20 0.20 0.22 0.24 0.27 0.31 0.31 0.34 0.34 0.31 0.33 0.37 0.37 0.41 0.52 0.55 0.53 0.60 0.64 0.62 0.48 0.40 0.38 0.38 0.36 0.35 0.36 0.38 0.42
0.08 0.08 0.08 0.09 0.12 0.12 0.11 0.11 0.11 0.12 0.15 0.17 0.17 0.19 0.20 0.20 0.21 0.23 0.27 0.31 0.33 0.36 0.37 0.37 0.36 0.33 0.38 0.48 0.53 0.56 0.61 0.65 0.63 0.53 0.43 0.41 0.38 0.36 0.34 0.33 0.34 0.35 0.39